sat.trackr.live / text

‹ back to catalog

STARLINK-31719

NORAD 59495 · 2024-071M

PAYLOAD ACTIVE UNKNOWN

§ Identity

Operator
Country
US
Launch date
2024-04-13
Launch site
AFETR
Launch vehicle
Mass (kg)
RCS (m²)

Purposes: comms

External: N2YO · Heavens-Above · Gunter

§ Orbital elements

Epoch: 2026-05-25T01:36:15.070176Z

Period
94.27 min
Inclination
43.0014°
Eccentricity
0.0001502
Mean motion
15.27576740 rev/d
Perigee alt
482.0 km
Apogee alt
484.1 km
Semi-major
6,861.2 km
B*
3.1031e-5
RAAN
268.6600°
Arg perigee
290.1166°
Mean anomaly
69.9524°
Rev number
11,988

§ Raw data

STARLINK-317191 59495U 24071M   26145.06684109  .00000592  00000+0  31031-4 0  99952 59495  43.0014 268.6600 0001502 290.1166  69.9524 15.27576740119883

JSON: /api/v1/satellites/59495 · /tle

For live sub-satellite position, see the globe view (requires WebGL).

§ Visibility from observer

Set your observer location to see the next 7 days of passes ≥ 10°. The values pass through the URL so the page stays shareable.

No JS? Fill the form by hand. The geolocation button needs JavaScript.